Starlink 11253

operational
NORAD ID: 60935 Int'l Des: 2024-155 Owner: SPXS Country: US Constellation: starlink
LEOCIRCULAR

Über Starlink 11253

Beschreibung wird geladen...

Live-Position

3D-Globus wird geladen...

Nächste Überflüge

Höhenverlauf

Altitude vs Time

uPlot chart will show altitude changes over time

Zweizeiliger Elementsatz

1 60935U 24155M 25308.10434832 .00000346 00000-0 77062-5 0 9993
2 60935 53.1593 240.6450 0001201 80.5332 279.5822 15.69730421 68677
Epoch: 4. Nov. 2025 • Age: 18 hours

Aktueller Status

Höhe 362.3 km
Geschwindigkeit 7.69 km/s
Subsatellitenpunkt -8.49°S, 77.28°E
Startdatum 31. Aug. 2024
Alter 1.1 years
Typ internet

Technische Details

Klassifizierung Payload
Masse 960.00 kg
Trockenmasse 910.00 kg
Gesamtmasse 960.00 kg
Länge 0.30 m
Durchmesser 4.10 m
Spannweite 29.00 m
Form Box + pan
Hersteller SPXS
Bus-Typ Starlink V2MD
Phasenstatus In Orbit
Besitzer/Staat SPXS/US

Große Konstellationen

Loading constellations...